EST,Max TemperatureF,Mean TemperatureF,Min TemperatureF,Max Dew PointF,MeanDew PointF,Min DewpointF,Max Humidity, Mean Humidity, Min Humidity, Max Sea Level PressureIn, Mean Sea Level PressureIn, Min Sea Level PressureIn, Max VisibilityMiles, Mean VisibilityMiles, Min VisibilityMiles, Max Wind SpeedMPH, Mean Wind SpeedMPH, Max Gust SpeedMPH,PrecipitationIn, CloudCover, Events, WindDirDegrees
2013-2-1,60,48,37,30,23,10,57,39,17,30.37,30.23,30.18,10,10,10,23,8,37,0.00,0,,276
2013-2-2,57,45,33,41,32,18,87,62,42,30.38,30.27,30.12,10,10,10,10,5,,0.00,0,,51
2013-2-3,62,53,44,39,32,28,76,49,27,30.11,30.03,29.94,10,10,9,20,8,29,0.00,1,,265
2013-2-4,55,44,32,39,34,27,93,65,38,30.16,30.10,30.05,10,10,10,7,1,,0.00,0,,96
2013-2-5,68,52,35,50,43,34,93,72,40,30.10,30.03,29.98,10,10,8,16,3,21,0.00,0,,231
2013-2-6,71,60,48,54,49,46,94,76,41,30.19,30.12,30.04,10,9,3,12,3,,0.00,0,,201
2013-2-7,60,54,48,57,54,46,100,92,82,30.18,30.03,29.72,10,6,1,17,5,23,1.10,6,Rain,43
2013-2-8,66,57,48,61,49,46,100,78,49,30.05,29.91,29.72,10,10,3,16,9,21,0.02,4,Rain,287
2013-2-9,62,50,39,48,33,21,93,56,20,30.35,30.23,30.07,10,10,7,14,7,20,0.00,0,,356
2013-2-10,64,50,37,55,47,36,93,78,55,30.40,30.32,30.21,10,9,5,17,5,21,0.00,2,,66
2013-2-11,64,62,60,63,61,55,100,92,77,30.24,30.15,30.07,9,5,1,14,4,24,0.98,7,Rain,213
2013-2-12,60,56,51,61,55,46,100,89,59,30.14,30.03,29.90,10,7,1,12,4,17,1.02,8,Rain,351
2013-2-13,73,62,51,64,54,43,100,81,38,29.89,29.80,29.72,10,7,0,26,8,40,0.25,6,Fog-Rain-Thunderstorm,246
2013-2-14,53,48,42,46,40,34,93,71,47,30.09,30.02,29.87,10,10,10,13,6,22,0.00,0,,331
2013-2-15,57,48,39,45,39,37,93,74,48,30.12,30.05,29.98,10,10,7,8,2,,0.00,0,,53
2013-2-16,55,46,37,45,37,28,93,82,54,30.05,29.92,29.85,10,9,2,20,4,29,0.01,1,Rain,298
2013-2-17,48,40,32,30,16,5,81,46,17,30.33,30.20,30.05,10,10,10,20,9,25,0.00,0,,290
2013-2-18,51,40,28,32,24,14,81,55,22,30.45,30.38,30.28,10,10,10,10,2,,0.00,0,,159
2013-2-19,64,50,37,55,47,32,100,83,56,30.28,30.11,29.99,10,9,2,21,4,30,0.03,3,Rain,232
2013-2-20,55,44,33,50,34,23,100,65,30,30.18,30.12,30.06,10,9,1,9,3,,0.00,0,,230
2013-2-21,59,47,35,50,41,34,94,77,44,30.20,30.14,30.11,10,10,9,10,2,,0.00,0,,70
2013-2-22,66,58,50,63,52,43,100,84,63,30.20,30.13,30.06,10,6,0,24,10,33,0.42,7,Rain,54
2013-2-23,62,54,46,61,53,46,100,97,93,30.06,29.94,29.81,9,4,0,14,5,,1.63,7,Rain,298
2013-2-24,69,58,48,57,50,45,100,83,40,30.02,29.94,29.80,10,8,0,12,7,20,0.01,3,Fog,292
2013-2-25,53,48,44,52,47,41,100,91,77,30.09,30.02,29.95,10,5,2,21,6,30,0.25,5,Rain,42
2013-2-26,71,60,50,66,58,46,100,85,56,29.96,29.73,29.60,10,5,1,25,16,39,0.49,4,Rain,165
2013-2-27,62,55,48,52,41,34,88,61,44,29.92,29.85,29.72,10,10,9,17,10,24,0.00,1,,251
2013-2-28,62,54,46,41,34,27,76,49,27,29.92,29.86,29.80,10,10,10,22,9,29,0.00,0,,266